Location: Maignaut
(43.8886°N, 0.4051°E)
Time: 18:43:27
(UTC+00:00)

Cosmos 192 - Pass Details

Date: 27 February 2020
Orbit: 701 x 713 km, 74.0° (Epoch: 28 March)

Event Time Altitude Azimuth Distance (km) Brightness Sun altitude
Rises 18:43:20 0° 192° (SSW) 3,078 7.8 -11.6°
Reaches altitude 10° 18:45:39 10° 190° (S) 2,163 7.0 -12.0°
Maximum altitude 18:50:30 69° 107° (ESE) 751 4.2 -12.8°
Drops below altitude 10° 18:55:23 10° 25° (NNE) 2,176 6.6 -13.7°
Sets 18:57:43 0° 23° (NNE) 3,098 7.4 -14.1°
